Date String (YYYY-MM-DD hh:mm:ss) UTC,Instrument flags,Ambient pressure (hPa),Sample flow (lpm),Bypass flow (lpm),Sample temperature (°C),Ambient temperature (°C),ASC tube jacket temperature (°C),LED temperature (°C),Box temperature (°C),Sample RH (%),Span deviation,Mass concentration (μg/m³),Mass concentration (μg/m³),Mass concentration (μg/m³)
DateTimeUTC,F1_M11,P_M11,Q1_M11,Q2_M11,T1_M11,T2_M11,T3_M11,T4_M11,T5_M11,U1_M11,ZSPAN_M11,X0_M11,X2_M11,X1_M11
2022-02-26 23:00:00,,0831.6,5.00,0.00,25.2,24.5,00.0,34.1,27.1,05.9,0000.0,0014.58,0009.83,0009.14
2022-02-26 23:01:00,,0831.5,5.00,0.00,25.2,24.5,00.0,34.1,27.1,05.9,-000.1,0014.49,0009.93,0009.21
2022-02-26 23:02:00,,0831.6,5.00,0.00,25.3,24.5,00.0,34.1,27.1,06.0,-000.1,0014.63,0009.99,0009.26
2022-02-26 23:03:00,,0831.6,5.00,0.00,25.2,24.5,00.0,34.1,27.1,05.8,-000.3,0014.57,0010.01,0009.30
2022-02-26 23:04:00,,0831.6,5.00,0.00,25.3,24.5,00.0,34.1,27.1,06.1,-000.2,0014.59,0010.07,0009.37
2022-02-26 23:05:00,,0831.6,5.00,0.00,25.3,24.5,00.0,34.1,27.1,05.9,-000.3,0014.70,0010.15,0009.45
2022-02-26 23:06:00,,0831.6,5.01,0.00,25.3,24.5,00.0,34.1,27.1,05.9,0000.3,0014.77,0010.23,0009.52
2022-02-26 23:07:00,,0831.6,5.01,0.00,25.3,24.5,00.0,34.2,27.1,06.0,0000.8,0014.23,0010.29,0009.60
2022-02-26 23:08:00,,0831.6,4.99,0.00,25.3,24.5,00.0,34.2,27.1,05.9,0000.9,0014.07,0010.35,0009.64
2022-02-26 23:09:00,,0831.5,5.00,0.00,25.3,24.5,00.0,34.2,27.1,06.0,0001.3,0014.96,0010.39,0009.65
2022-02-26 23:10:00,,0831.5,4.99,0.00,25.3,24.5,00.0,34.2,27.1,06.0,0001.6,0015.40,0010.42,0009.68
2022-02-26 23:11:00,,0831.6,5.00,0.00,25.3,24.5,00.0,34.2,27.1,06.0,0001.9,0015.46,0010.46,0009.70
2022-02-26 23:12:00,,0831.6,5.00,0.00,25.3,24.5,00.0,34.2,27.1,06.0,0002.1,0015.64,0010.49,0009.70
2022-02-26 23:13:00,,0831.6,4.99,0.00,25.3,24.6,00.0,34.2,27.2,05.9,0002.2,0015.53,0010.49,0009.71
2022-02-26 23:14:00,,0831.6,5.00,0.00,25.3,24.6,00.0,34.2,27.2,05.7,0002.2,0015.64,0010.50,0009.71
2022-02-26 23:15:00,,0831.6,5.00,0.00,25.3,24.6,00.0,34.2,27.2,05.8,0002.2,0016.12,0010.50,0009.70
2022-02-26 23:16:00,,0831.6,5.00,0.00,25.3,24.6,00.0,34.2,27.2,05.8,0002.1,0016.14,0010.50,0009.71
2022-02-26 23:17:00,,0831.6,5.00,0.00,25.3,24.6,00.0,34.2,27.2,06.0,0002.1,0016.15,0010.51,0009.72
2022-02-26 23:18:00,,0831.6,5.00,0.00,25.3,24.6,00.0,34.2,27.2,05.9,0002.1,0016.41,0010.57,0009.74
2022-02-26 23:19:00,,0831.6,5.00,0.00,25.3,24.6,00.0,34.2,27.2,06.1,0002.0,0016.96,0010.59,0009.78
2022-02-26 23:20:00,,0831.6,5.00,0.00,25.3,24.6,00.0,34.2,27.2,06.3,0001.7,0016.58,0010.62,0009.81
2022-02-26 23:21:00,,0831.6,5.00,0.00,25.3,24.6,00.0,34.2,27.2,06.2,0001.5,0017.23,0010.68,0009.83
2022-02-26 23:22:00,,0831.6,5.01,0.00,25.4,24.6,00.0,34.2,27.2,06.1,0001.3,0017.37,0010.69,0009.83
2022-02-26 23:23:00,,0831.6,5.00,0.00,25.4,24.6,00.0,34.2,27.2,06.0,0001.2,0017.61,0010.68,0009.84
2022-02-26 23:24:00,,0831.6,4.98,0.00,25.4,24.6,00.0,34.2,27.3,05.8,0001.4,0018.00,0010.69,0009.85
2022-02-26 23:25:00,,0831.6,5.01,0.00,25.4,24.6,00.0,34.3,27.2,06.1,0001.6,0018.11,0010.72,0009.87
2022-02-26 23:26:00,,0831.6,5.00,0.00,25.4,24.6,00.0,34.3,27.2,06.2,0001.6,0017.93,0010.75,0009.90
2022-02-26 23:27:00,,0831.6,5.00,0.00,25.4,24.6,00.0,34.3,27.3,06.0,0001.4,0017.96,0010.77,0009.93
2022-02-26 23:28:00,,0831.7,4.99,0.00,25.4,24.6,00.0,34.3,27.3,06.1,0001.4,0018.04,0010.82,0009.96
2022-02-26 23:29:00,,0831.7,4.99,0.00,25.4,24.6,00.0,34.3,27.3,06.2,0001.1,0018.12,0010.75,0009.96
2022-02-26 23:30:00,,0831.7,5.00,0.00,25.4,24.6,00.0,34.3,27.3,06.1,0001.2,0017.65,0010.72,0009.92
2022-02-26 23:31:00,,0831.7,5.00,0.00,25.4,24.6,00.0,34.3,27.3,06.2,0001.3,0017.35,0010.66,0009.87
2022-02-26 23:32:00,,0831.7,5.00,0.00,25.4,24.6,00.0,34.3,27.3,05.9,0001.2,0016.31,0010.62,0009.83
2022-02-26 23:33:00,,0831.7,5.00,0.00,25.4,24.6,00.0,34.3,27.3,05.8,0001.1,0016.14,0010.53,0009.80
2022-02-26 23:34:00,,0831.7,5.00,0.00,25.4,24.6,00.0,34.3,27.3,06.0,0001.0,0015.97,0010.50,0009.79
2022-02-26 23:35:00,,0831.7,5.02,0.00,25.4,24.7,00.0,34.3,27.3,05.9,0001.0,0015.53,0010.46,0009.76
2022-02-26 23:36:00,,0831.7,5.01,0.00,25.4,24.7,00.0,34.3,27.3,06.0,0000.8,0015.46,0010.44,0009.72
2022-02-26 23:37:00,,0831.6,5.00,0.00,25.4,24.7,00.0,34.3,27.3,05.7,0000.9,0015.14,0010.37,0009.66
2022-02-26 23:38:00,,0831.7,5.00,0.00,25.4,24.7,00.0,34.3,27.3,05.9,0001.3,0015.09,0010.32,0009.60
2022-02-26 23:39:00,,0831.7,5.00,0.00,25.5,24.7,00.0,34.3,27.3,06.0,0001.3,0015.41,0010.26,0009.54
2022-02-26 23:40:00,,0831.7,5.00,0.00,25.5,24.7,00.0,34.3,27.3,06.1,0001.3,0015.87,0010.26,0009.51
2022-02-26 23:41:00,,0831.7,4.99,0.00,25.5,24.7,00.0,34.3,27.3,05.9,0001.4,0015.67,0010.29,0009.52
2022-02-26 23:42:00,,0831.8,4.99,0.00,25.4,24.6,00.0,34.3,27.3,05.8,0001.5,0015.66,0010.28,0009.51
2022-02-26 23:43:00,,0831.8,4.99,0.00,25.4,24.6,00.0,34.4,27.2,05.7,0002.2,0015.58,0010.26,0009.50
2022-02-26 23:44:00,,0831.8,4.99,0.00,25.4,24.6,00.0,34.4,27.3,05.7,0002.3,0015.51,0010.27,0009.50
2022-02-26 23:45:00,,0831.8,5.01,0.00,25.4,24.6,00.0,34.4,27.3,05.7,0002.7,0015.11,0010.22,0009.47
2022-02-26 23:46:00,,0831.8,4.99,0.00,25.4,24.6,00.0,34.4,27.3,05.7,0002.4,0015.10,0010.22,0009.47
2022-02-26 23:47:00,,0831.8,5.00,0.00,25.4,24.6,00.0,34.4,27.3,05.9,0002.3,0014.87,0010.16,0009.47
2022-02-26 23:48:00,,0831.8,5.01,0.00,25.4,24.7,00.0,34.4,27.3,05.9,0002.6,0014.78,0010.16,0009.49
2022-02-26 23:49:00,,0831.8,5.00,0.00,25.4,24.6,00.0,34.4,27.3,05.8,0002.4,0014.76,0010.19,0009.51
2022-02-26 23:50:00,,0831.8,5.00,0.00,25.4,24.6,00.0,34.4,27.2,05.8,0002.6,0014.32,0010.14,0009.49
2022-02-26 23:51:00,,0831.8,4.99,0.00,25.4,24.6,00.0,34.4,27.3,05.8,0002.7,0013.57,0010.12,0009.48
2022-02-26 23:52:00,,0831.8,5.00,0.00,25.4,24.6,00.0,34.4,27.2,05.7,0002.6,0013.62,0010.08,0009.47
2022-02-26 23:53:00,,0831.8,5.00,0.00,25.4,24.6,00.0,34.4,27.2,05.7,0002.2,0014.46,0010.04,0009.47
2022-02-26 23:54:00,,0831.8,5.01,0.00,25.4,24.6,00.0,34.4,27.2,05.7,0001.9,0014.68,0010.03,0009.48
2022-02-26 23:55:00,,0831.8,4.99,0.00,25.4,24.6,00.0,34.4,27.2,05.6,0001.8,0014.76,0010.04,0009.47
2022-02-26 23:56:00,,0831.8,5.00,0.00,25.4,24.6,00.0,34.4,27.2,05.6,0001.9,0014.78,0010.05,0009.46
2022-02-26 23:57:00,,0831.8,5.00,0.00,25.4,24.6,00.0,34.4,27.2,05.6,0002.3,0014.86,0010.06,0009.44
2022-02-26 23:58:00,,0831.8,5.01,0.00,25.4,24.6,00.0,34.4,27.2,05.5,0002.3,0014.99,0010.05,0009.40
2022-02-26 23:59:00,,0831.8,4.99,0.00,25.4,24.6,00.0,34.4,27.2,05.5,0002.2,0014.98,0010.01,0009.36
